Altus AFB, OK

9:56 AM CDT on June 29, 2017 (GMT -0500)
Altus Air Force Base

Weather History for KLTS - December, 2012

Change the Weather History Date:

Saturday, December 8, 2012

  Actual Average Record
Temperature  
Mean Temperature 42 °F -  
Max Temperature 48 °F 52 °F 73 °F (2003)
Min Temperature 35 °F 29 °F 3 °F (2005)
Degree Days  
Heating Degree Days 24    
Moisture  
Dew Point 39 °F    
Average Humidity 98    
Maximum Humidity 100    
Minimum Humidity 82    
Precipitation  
Precipitation 0.00 in - - ()
Sea Level Pressure  
Sea Level Pressure 29.89 in    
Wind  
Wind Speed 7 mph (NE)    
Max Wind Speed 12 mph    
Max Gust Speed -    
Visibility 5 miles    
Events Fog    
Averages and records for this station are not official NWS values.
T = Trace of Precipitation, MM = Missing Value Source: NWS Daily Summary

Daily Weather History Graph

Daily Weather History Graph

Search for Another Location

Airport or City:

Trip Planner

Search our weather history database for the weather conditions in past years. The results will help you decide how hot, cold, wet, or windy it might be!

Date:

Astronomy

Dec. 08, 2012 Rise Set
Actual Time 7:32 AM CST 5:26 PM CST
Civil Twilight 7:04 AM CST 5:54 PM CST
Nautical Twilight 6:32 AM CST 6:25 PM CST
Astronomical Twilight 6:02 AM CST 6:56 PM CST
Moon 2:09 AM CST (12/8) 1:48 PM CST (12/8)
Length of Visible Light 10h 49m
Length of Day
9h 54m
Waning Crescent, 28% of the Moon is Illuminated
Dec 8
Waning Crescent
Dec 13
New
Dec 19
First Quarter
Dec 28
Full
Jan 4
Last Quarter

Hourly Weather History & Observations

Time (CST) Temp. Windchill Dew Point Humidity Pressure Visibility Wind Dir Wind Speed Gust Speed Precip Events Conditions
12:55 AM 37.0 °F 31.6 °F 36.7 °F 99% 29.93 in 8.0 mi NNE 6.9 mph - N/A   Clear
1:17 AM 35.6 °F 30.7 °F 35.6 °F 100% 29.93 in 8.0 mi North 5.8 mph - N/A   Clear
1:20 AM 37.4 °F 32.8 °F 37.4 °F 100% 29.93 in 8.0 mi NNE 5.8 mph - N/A   Clear
1:31 AM 35.6 °F 29.9 °F 35.6 °F 100% 29.93 in 8.0 mi NNE 6.9 mph - N/A   Clear
1:55 AM 37.8 °F 32.5 °F 37.6 °F 99% 29.92 in 8.0 mi NE 6.9 mph - N/A   Clear
2:16 AM 37.4 °F 31.4 °F 37.4 °F 100% 29.92 in 7.0 mi NE 8.1 mph - N/A   Clear
2:24 AM 37.4 °F 32.1 °F 37.4 °F 100% 29.92 in 7.0 mi NE 6.9 mph - N/A   Clear
2:38 AM 39.2 °F 35.0 °F 39.2 °F 100% 29.93 in 7.0 mi NE 5.8 mph - N/A   Clear
2:55 AM 37.8 °F 35.3 °F 37.4 °F 99% 29.94 in 6.0 mi NNE 3.5 mph - N/A   Clear
3:29 AM 35.6 °F 29.9 °F 35.6 °F 100% 29.94 in 5.0 mi NE 6.9 mph - N/A   Clear
3:40 AM 35.6 °F 29.9 °F 35.6 °F 100% 29.94 in 5.0 mi NNE 6.9 mph - N/A   Clear
3:43 AM 35.6 °F 29.2 °F 35.6 °F 100% 29.94 in 5.0 mi NNE 8.1 mph - N/A   Clear
3:55 AM 35.1 °F 29.3 °F 34.9 °F 99% 29.94 in 5.0 mi NNE 6.9 mph - N/A   Clear
3:56 AM 35.6 °F 29.9 °F 35.6 °F 100% 29.94 in 5.0 mi NNE 6.9 mph - N/A   Clear
4:03 AM 35.6 °F 29.9 °F 35.6 °F 100% 29.94 in 6.0 mi NE 6.9 mph - N/A   Clear
4:07 AM 35.6 °F 29.9 °F 35.6 °F 100% 29.94 in 7.0 mi NNE 6.9 mph - N/A   Clear
4:14 AM 35.6 °F 29.9 °F 35.6 °F 100% 29.94 in 6.0 mi NNE 6.9 mph - N/A   Partly Cloudy
4:18 AM 35.6 °F 29.2 °F 35.6 °F 100% 29.94 in 7.0 mi NNE 8.1 mph - N/A   Partly Cloudy
4:32 AM 35.6 °F 28.6 °F 35.6 °F 100% 29.94 in 7.0 mi NNE 9.2 mph - N/A   Mostly Cloudy
4:35 AM 37.4 °F 30.3 °F 35.6 °F 93% 29.94 in 7.0 mi NNE 10.4 mph - N/A   Mostly Cloudy
4:43 AM 37.4 °F 30.8 °F 37.4 °F 100% 29.93 in 4.0 mi NNE 9.2 mph - N/A   Mostly Cloudy
4:46 AM 39.2 °F 32.5 °F 39.2 °F 100% 29.93 in 4.0 mi NNE 10.4 mph - N/A   Mostly Cloudy
4:47 AM 39.2 °F 32.5 °F 39.2 °F 100% 29.93 in 5.0 mi NNE 10.4 mph - N/A   Mostly Cloudy
4:55 AM 38.8 °F 31.6 °F 38.8 °F 100% 29.93 in 5.0 mi NE 11.5 mph - N/A   Overcast
4:59 AM 39.2 °F 32.5 °F 39.2 °F 100% 29.93 in 6.0 mi NNE 10.4 mph - N/A   Overcast
5:11 AM 39.2 °F 33.0 °F 39.2 °F 100% 29.93 in 7.0 mi NNE 9.2 mph - N/A   Overcast
5:15 AM 39.2 °F 32.5 °F 39.2 °F 100% 29.93 in 8.0 mi NNE 10.4 mph - N/A   Overcast
5:31 AM 41.0 °F 35.2 °F 41.0 °F 100% 29.93 in 9.0 mi NNE 9.2 mph - N/A   Overcast
5:40 AM 39.2 °F 32.5 °F 39.2 °F 100% 29.94 in 9.0 mi NNE 10.4 mph - N/A   Overcast
5:44 AM 39.2 °F 32.5 °F 39.2 °F 100% 29.94 in 9.0 mi NNE 10.4 mph - N/A   Mostly Cloudy
5:55 AM 38.7 °F 31.8 °F 38.3 °F 99% 29.95 in 10.0 mi NNE 10.4 mph - N/A   Scattered Clouds
6:03 AM 37.4 °F 30.8 °F 37.4 °F 100% 29.95 in 9.0 mi NNE 9.2 mph - N/A   Partly Cloudy
6:07 AM 37.4 °F 30.8 °F 37.4 °F 100% 29.95 in 9.0 mi NNE 9.2 mph - N/A   Partly Cloudy
6:14 AM 37.4 °F 30.8 °F 37.4 °F 100% 29.95 in 9.0 mi NNE 9.2 mph - N/A   Scattered Clouds
6:18 AM 37.4 °F 29.8 °F 37.4 °F 100% 29.95 in 8.0 mi NNE 11.5 mph - N/A   Mostly Cloudy
6:24 AM 37.4 °F 30.3 °F 37.4 °F 100% 29.94 in 2.5 mi NNE 10.4 mph - N/A   Mostly Cloudy
6:28 AM 37.4 °F 29.8 °F 37.4 °F 100% 29.94 in 1.8 mi NNE 11.5 mph - N/A   Mostly Cloudy
6:30 AM 37.4 °F 29.8 °F 37.4 °F 100% 29.95 in 1.5 mi NNE 11.5 mph - N/A   Mostly Cloudy
6:35 AM 37.4 °F 30.8 °F 37.4 °F 100% 29.94 in 0.8 mi NNE 9.2 mph - N/A   Overcast
6:37 AM 37.4 °F 29.8 °F 37.4 °F 100% 29.94 in 0.5 mi NNE 11.5 mph - N/A Fog Fog
6:41 AM 39.2 °F 32.5 °F 37.4 °F 93% 29.94 in 0.5 mi NNE 10.4 mph - N/A Fog Fog
6:43 AM 39.2 °F 32.5 °F 37.4 °F 93% 29.94 in 0.5 mi NNE 10.4 mph - N/A Fog Fog
6:45 AM 39.2 °F 33.0 °F 39.2 °F 100% 29.94 in 0.2 mi NNE 9.2 mph - N/A Fog Fog
6:55 AM 38.7 °F 31.4 °F 38.7 °F 100% 29.94 in 0.5 mi NNE 11.5 mph - N/A Fog Fog
7:20 AM 41.0 °F 35.8 °F 41.0 °F 100% 29.95 in 0.5 mi NE 8.1 mph - N/A Fog Fog
7:23 AM 41.0 °F 34.7 °F 41.0 °F 100% 29.95 in 0.8 mi NE 10.4 mph - N/A   Mist
7:24 AM 41.0 °F 35.2 °F 41.0 °F 100% 29.95 in 0.8 mi NE 9.2 mph - N/A   Mist
7:29 AM 41.0 °F 35.2 °F 41.0 °F 100% 29.96 in 0.8 mi NE 9.2 mph - N/A   Mist
7:40 AM 41.0 °F 36.4 °F 41.0 °F 100% 29.97 in 0.8 mi NNE 6.9 mph - N/A   Overcast
7:45 AM 41.0 °F 37.1 °F 41.0 °F 100% 29.96 in 0.8 mi NE 5.8 mph - N/A   Overcast
7:55 AM 40.6 °F 35.4 °F 40.6 °F 100% 29.96 in 0.8 mi NE 8.1 mph - N/A   Overcast
7:57 AM 41.0 °F 35.2 °F 41.0 °F 100% 29.97 in 0.8 mi NNE 9.2 mph - N/A   Overcast
7:59 AM 41.0 °F 35.2 °F 41.0 °F 100% 29.96 in 1.0 mi NE 9.2 mph - N/A   Overcast
8:05 AM 41.0 °F 35.2 °F 41.0 °F 100% 29.96 in 2.0 mi NE 9.2 mph - N/A   Overcast
8:06 AM 41.0 °F 35.8 °F 41.0 °F 100% 29.96 in 2.0 mi ENE 8.1 mph - N/A   Overcast
8:55 AM 40.5 °F 34.6 °F 40.3 °F 99% 29.95 in 2.0 mi NNE 9.2 mph - N/A   Overcast
8:59 AM 41.0 °F 35.2 °F 41.0 °F 100% 29.95 in 1.8 mi NNE 9.2 mph - N/A   Overcast
9:14 AM 41.0 °F 35.8 °F 41.0 °F 100% 29.96 in 2.0 mi NNE 8.1 mph - N/A   Overcast
9:22 AM 41.0 °F 37.1 °F 39.2 °F 93% 29.96 in 3.0 mi NNE 5.8 mph - N/A   Overcast
9:55 AM 40.8 °F 37.8 °F 40.8 °F 100% 29.97 in 4.0 mi NNE 4.6 mph - N/A   Overcast
10:11 AM 41.0 °F 38.0 °F 41.0 °F 100% 29.96 in 5.0 mi North 4.6 mph - N/A   Overcast
10:55 AM 42.3 °F - 42.1 °F 99% 29.96 in 5.0 mi Calm Calm - N/A   Overcast
11:48 AM 42.8 °F - 42.8 °F 100% 29.94 in 6.0 mi Calm Calm - N/A   Overcast
11:55 AM 43.3 °F - 43.0 °F 99% 29.94 in 6.0 mi Calm Calm - N/A   Overcast
12:39 PM 44.6 °F 43.1 °F 42.8 °F 93% 29.91 in 6.0 mi WSW 3.5 mph - N/A   Overcast
12:55 PM 44.2 °F 42.7 °F 43.2 °F 96% 29.91 in 6.0 mi West 3.5 mph - N/A   Overcast
1:29 PM 44.6 °F - 42.8 °F 93% 29.88 in 7.0 mi Calm Calm - N/A   Overcast
1:55 PM 45.1 °F - 42.8 °F 91% 29.87 in 9.0 mi Calm Calm - N/A   Overcast
1:59 PM 46.4 °F - 42.8 °F 87% 29.86 in 9.0 mi Calm Calm - N/A   Overcast
2:55 PM 46.4 °F - 42.8 °F 87% 29.83 in 10.0 mi Calm Calm - N/A   Overcast
3:12 PM 46.4 °F - 42.8 °F 87% 29.83 in 10.0 mi Calm Calm - N/A   Overcast
3:55 PM 47.1 °F - 43.0 °F 86% 29.81 in 10.0 mi South 3.5 mph - N/A   Overcast
4:55 PM 47.3 °F - 43.0 °F 85% 29.81 in 10.0 mi East 3.5 mph - N/A   Overcast
5:00 PM 48.2 °F - 42.8 °F 82% 29.81 in 10.0 mi SE 3.5 mph - N/A   Overcast
5:16 PM 48.2 °F - 42.8 °F 82% 29.81 in 10.0 mi SE 5.8 mph - N/A   Overcast
5:55 PM 47.5 °F - 43.7 °F 87% 29.81 in 10.0 mi SSE 8.1 mph - N/A   Overcast
6:09 PM 48.2 °F - 44.6 °F 87% 29.81 in 10.0 mi SSE 9.2 mph - N/A   Overcast
6:43 PM 46.4 °F 42.4 °F 44.6 °F 93% 29.81 in 9.0 mi SSE 8.1 mph - N/A   Overcast
6:48 PM 46.4 °F 42.9 °F 44.6 °F 93% 29.81 in 9.0 mi SSE 6.9 mph - N/A   Overcast
6:55 PM 47.1 °F - 44.6 °F 91% 29.81 in 9.0 mi SSE 8.1 mph - N/A   Overcast
7:02 PM 44.6 °F 41.4 °F 42.8 °F 93% 29.80 in 8.0 mi SE 5.8 mph - N/A   Scattered Clouds
7:04 PM 44.6 °F 42.2 °F 42.8 °F 93% 29.80 in 9.0 mi ESE 4.6 mph - N/A   Scattered Clouds
7:16 PM 44.6 °F 42.2 °F 42.8 °F 93% 29.80 in 8.0 mi ESE 4.6 mph - N/A   Partly Cloudy
7:26 PM 42.8 °F 39.3 °F 42.8 °F 100% 29.80 in 8.0 mi ESE 5.8 mph - N/A   Clear
7:55 PM 41.9 °F 37.5 °F 41.5 °F 99% 29.80 in 7.0 mi ESE 6.9 mph - N/A   Clear
8:05 PM 41.0 °F 39.0 °F 41.0 °F 100% 29.80 in 7.0 mi East 3.5 mph - N/A   Clear
8:12 PM 41.0 °F 39.0 °F 39.2 °F 93% 29.80 in 6.0 mi NNE 3.5 mph - N/A   Clear
8:55 PM 39.0 °F 34.8 °F 38.8 °F 99% 29.79 in 6.0 mi ENE 5.8 mph - N/A   Clear
9:07 PM 37.4 °F 32.8 °F 37.4 °F 100% 29.78 in 5.0 mi East 5.8 mph - N/A   Clear
9:11 PM 37.4 °F 33.8 °F 37.4 °F 100% 29.78 in 5.0 mi East 4.6 mph - N/A   Clear
9:18 PM 37.4 °F 33.8 °F 37.4 °F 100% 29.78 in 5.0 mi East 4.6 mph - N/A   Clear
9:44 PM 37.4 °F 32.1 °F 37.4 °F 100% 29.78 in 6.0 mi SE 6.9 mph - N/A   Clear
9:55 PM 38.5 °F 33.4 °F 38.3 °F 99% 29.78 in 7.0 mi SE 6.9 mph - N/A   Clear
10:02 PM 39.2 °F 35.9 °F 39.2 °F 100% 29.78 in 7.0 mi SE 4.6 mph - N/A   Clear
10:31 PM 39.2 °F 37.0 °F 39.2 °F 100% 29.78 in 5.0 mi ESE 3.5 mph - N/A   Clear
10:37 PM 39.2 °F - 37.4 °F 93% 29.78 in 2.5 mi Calm Calm - N/A   Clear
10:42 PM 37.4 °F - 37.4 °F 100% 29.78 in 1.0 mi Calm Calm - N/A   Clear
10:55 PM 39.0 °F - 39.0 °F 100% 29.77 in 2.0 mi Calm Calm - N/A   Clear
10:56 PM 39.2 °F - 39.2 °F 100% 29.78 in 1.0 mi Calm Calm - N/A   Clear
10:59 PM 39.2 °F - 39.2 °F 100% 29.77 in 0.8 mi Calm Calm - N/A   Clear
11:03 PM 39.2 °F 37.0 °F 39.2 °F 100% 29.77 in 0.5 mi SSE 3.5 mph - N/A Fog Fog
11:06 PM 37.4 °F 34.9 °F 37.4 °F 100% 29.77 in 0.5 mi SSE 3.5 mph - N/A Fog Fog
11:10 PM 37.4 °F 33.8 °F 37.4 °F 100% 29.77 in 0.5 mi SE 4.6 mph - N/A Fog Fog
11:21 PM 39.2 °F 37.0 °F 39.2 °F 100% 29.77 in 0.5 mi SE 3.5 mph - N/A Fog Fog
11:27 PM 37.4 °F - 37.4 °F 100% 29.77 in 0.2 mi Calm Calm - N/A Fog Fog
11:55 PM 36.1 °F - 36.1 °F 100% 29.77 in 0.2 mi Calm Calm - N/A Fog Fog